This demonstration page uses our WeatherBlox Daily Observations layout. Learn more.

Left ArrowRight Arrow

Hourly Observations for June 28, 2017

Temp ( °F °C ) Dew Point ( °F °C ) Humidity (%) Winds ( mph kmh ) Pressure ( in mb ) Visibility ( mi km ) Precip ( " mm )
12:07 am 00:07 Clear 59 15 50 10 72 72 S 3 6 30.12 1020 10 16 N/A
12:27 am 00:27 Clear 59 15 50 10 72 72 SSE 3 6 30.12 1020 10 16 N/A
12:47 am 00:47 Clear 57 14 50 10 77 77 SSE 5 7 30.12 1020 10 16 N/A
1:07 am 01:07 Clear 57 14 50 10 77 77 SSE 5 7 30.12 1020 10 16 N/A
1:27 am 01:27 Clear 57 14 50 10 77 77 SSE 5 7 30.12 1020 10 16 N/A
1:48 am 01:48 Clear 57 14 50 10 77 77 SSE 6 9 30.12 1020 10 16 N/A
2:07 am 02:07 Clear 57 14 50 10 77 77 S 5 7 30.12 1020 10 16 N/A
2:27 am 02:27 Clear 55 13 50 10 82 82 S 3 6 30.12 1020 10 16 N/A
2:47 am 02:47 Clear 55 13 50 10 82 82 S 5 7 30.12 1020 10 16 N/A
3:07 am 03:07 Clear 55 13 50 10 82 82 SSE 3 6 30.12 1020 10 16 N/A
3:27 am 03:27 Clear 55 13 50 10 82 82 SSE 3 6 30.12 1020 10 16 N/A
3:47 am 03:47 Clear 55 13 50 10 82 82 SSE 5 7 30.12 1020 10 16 N/A
4:07 am 04:07 Clear 54 12 50 10 88 88 SSE 3 6 30.15 1021 10 16 N/A
4:27 am 04:27 Clear 55 13 50 10 82 82 SSE 6 9 30.12 1020 10 16 N/A
4:47 am 04:47 Clear 55 13 50 10 82 82 SSE 6 9 30.12 1020 10 16 N/A
5:07 am 05:07 Clear 55 13 50 10 82 82 SSE 6 9 30.09 1019 10 16 N/A
5:27 am 05:27 Clear 55 13 50 10 82 82 SSE 5 7 30.09 1019 10 16 N/A
5:47 am 05:47 Clear 54 12 50 10 88 88 SSE 5 7 30.15 1021 10 16 N/A
6:07 am 06:07 Clear 54 12 50 10 88 88 SSE 5 7 30.15 1021 10 16 N/A
6:27 am 06:27 Sunny 54 12 50 10 88 88 SSE 5 7 30.15 1021 10 16 N/A
6:47 am 06:47 Sunny 54 12 50 10 88 88 SSE 6 9 30.15 1021 10 16 N/A
7:07 am 07:07 Sunny 54 12 50 10 88 88 SSE 5 7 30.15 1021 10 16 N/A
7:27 am 07:27 Sunny 55 13 50 10 82 82 SSE 6 9 30.12 1020 10 16 N/A
7:47 am 07:47 Sunny 57 14 50 10 77 77 SSE 6 9 30.12 1020 10 16 N/A
8:07 am 08:07 Sunny 59 15 50 10 72 72 SSE 7 11 30.12 1020 10 16 N/A
8:27 am 08:27 Sunny 61 16 50 10 68 68 S 9 15 30.12 1020 10 16 N/A
8:48 am 08:48 Sunny 63 17 52 11 68 68 S 9 15 30.12 1020 10 16 N/A
9:07 am 09:07 Sunny 64 18 52 11 64 64 S 9 15 30.12 1020 10 16 N/A
9:27 am 09:27 Sunny 64 18 52 11 64 64 SSE 10 17 30.12 1020 10 16 N/A
9:47 am 09:47 Sunny 66 19 52 11 60 60 SSE 10 17 30.15 1021 10 16 N/A
10:07 am 10:07 Sunny 68 20 52 11 56 56 S 10 17 30.15 1021 10 16 N/A
10:27 am 10:27 Sunny 70 21 52 11 53 53 S 10 17 30.15 1021 10 16 N/A
10:47 am 10:47 Sunny 70 21 52 11 53 53 SSW 10 17 30.15 1021 10 16 N/A
11:07 am 11:07 Sunny 72 22 54 12 53 53 S 10 17 30.15 1021 10 16 N/A
11:28 am 11:28 Sunny 72 22 54 12 53 53 S 12 19 30.09 1019 10 16 N/A
11:47 am 11:47 Sunny 73 23 54 12 50 50 S 12 19 30.12 1020 10 16 N/A
12:07 pm 12:07 Sunny 73 23 54 12 50 50 S 12 19 30.09 1019 10 16 N/A
12:27 pm 12:27 Sunny 75 24 54 12 47 47 SSW 15 24 30.09 1019 10 16 N/A
12:47 pm 12:47 Sunny 75 24 54 12 47 47 SSW 10 17 30.09 1019 10 16 N/A
1:07 pm 13:07 Sunny 77 25 54 12 44 44 SSW 10 17 30.09 1019 10 16 N/A
1:27 pm 13:27 Sunny 77 25 54 12 44 44 S 12 19 30.09 1019 10 16 N/A
1:47 pm 13:47 Sunny 77 25 52 11 42 42 SW 14 22 30.09 1019 10 16 N/A
2:07 pm 14:07 Sunny 77 25 52 11 42 42 SSW 14 22 30.06 1018 10 16 N/A
2:27 pm 14:27 Sunny 79 26 54 12 42 42 SW 12 19 30.06 1018 10 16 N/A
2:47 pm 14:47 Sunny 77 25 54 12 44 44 SSW 14 22 30.06 1018 10 16 N/A
3:07 pm 15:07 Sunny 79 26 54 12 42 42 S 14 22 30.06 1018 10 16 N/A
3:27 pm 15:27 Sunny 79 26 52 11 39 39 SW 14 22 30.03 1017 10 16 N/A
3:47 pm 15:47 Sunny 77 25 54 12 44 44 SSW 13 20 30.03 1017 10 16 N/A
4:07 pm 16:07 Sunny 79 26 54 12 42 42 S 9 15 30.03 1017 10 16 N/A
4:27 pm 16:27 Sunny 77 25 54 12 44 44 S 10 17 30.03 1017 10 16 N/A
4:47 pm 16:47 Sunny 81 27 54 12 39 39 S 16 26 30.00 1016 10 16 N/A
5:07 pm 17:07 Sunny 79 26 52 11 39 39 S 14 22 29.97 1015 10 16 N/A
5:27 pm 17:27 Sunny 79 26 52 11 39 39 S 15 24 29.97 1015 10 16 N/A
5:47 pm 17:47 Sunny 79 26 52 11 39 39 SSW 14 22 29.97 1015 10 16 N/A
6:07 pm 18:07 Sunny 79 26 52 11 39 39 S 14 22 29.97 1015 10 16 N/A
6:28 pm 18:28 Sunny 79 26 52 11 39 39 S 15 24 29.97 1015 10 16 N/A
6:47 pm 18:47 Sunny 79 26 52 11 39 39 SSW 15 24 29.97 1015 10 16 N/A
7:07 pm 19:07 Sunny 79 26 54 12 42 42 SSW 15 24 29.97 1015 10 16 N/A
7:27 pm 19:27 Sunny 77 25 52 11 42 42 SSW 16 26 29.97 1015 10 16 N/A
7:47 pm 19:47 Sunny 77 25 52 11 42 42 SSW 12 19 29.97 1015 10 16 N/A
8:08 pm 20:08 Sunny 77 25 54 12 44 44 SSW 9 15 29.97 1015 10 16 N/A
8:27 pm 20:27 Sunny 77 25 54 12 44 44 S 12 19 29.97 1015 10 16 N/A
8:47 pm 20:47 Sunny 77 25 54 12 44 44 S 12 19 29.94 1014 10 16 N/A
9:07 pm 21:07 Sunny 75 24 54 12 47 47 S 10 17 29.94 1014 10 16 N/A
9:27 pm 21:27 Clear 73 23 54 12 50 50 S 8 13 29.94 1014 10 16 N/A
9:47 pm 21:47 Clear 72 22 55 13 57 57 S 8 13 29.94 1014 10 16 N/A
10:07 pm 22:07 Clear 72 22 55 13 57 57 S 7 11 29.97 1015 10 16 N/A
10:27 pm 22:27 Clear 70 21 55 13 60 60 S 7 11 29.97 1015 10 16 N/A
10:48 pm 22:48 Clear 70 21 55 13 60 60 S 6 9 29.97 1015 10 16 N/A
11:07 pm 23:07 Clear 70 21 55 13 60 60 S 7 11 29.97 1015 10 16 N/A
11:27 pm 23:27 Clear 70 21 55 13 60 60 S 6 9 29.97 1015 10 16 N/A
11:47 pm 23:47 Clear 70 21 55 13 60 60 S 9 15 29.97 1015 10 16 N/A

Powered by AerisWeather